Voltar ao catálogo

MOBIUS-1

AtivoCiênciaSSO
NORAD 64556·PAYLOAD·🇨🇦 Canada
Este nome de satélite ainda não foi confirmado por fontes oficiais.

Lançado Jun 23, 2025 de Vandenberg Space Force Base

Loading…

Próximas Passagens (próximas 24 horas)

TLE

AtualizadoSource: Space-Track

Época: Sep 14, 2026, 03:22 UTC

1 64556U 25135AE  26257.14050187  .00006920  00000-0  26326-3 0  9999
2 64556  97.4827  13.8428 0002936 100.9087 259.2482 15.27083323 68512

Acompanhe MOBIUS-1 em tempo real com AllMySat

Download on the App Store